When you browse on this site, cookies collect data to enhance your experience and personalize the content and advertising you see.
Visit our Privacy Policy to learn more. By continuing to use the site, you agree to this use of cookies and data.
  • In Schweiz
  • Länderverzeichnis
  • Für 7 Tage
  • Wassertemperatur
  • Wetterkarte
  • Widgets
  • user-avatar
    Anmelden

    Stündliche Wetter Uige

    Heute, 26 Mai, Dienstag

    Zeit Temperatur Niederschläge Wind Luftdruck Luftfeuchtigkeit
    00:00 +21°C° 0 mm 0 m/S 691 mmHg 91%
    01:00 +22°C° 0 mm 1 m/S 691 mmHg 92%
    02:00 +20°C° 0 mm 0 m/S 691 mmHg 93%
    03:00 +20°C° 0 mm 0 m/S 691 mmHg 94%
    04:00 +19°C° 0 mm 0 m/S 690 mmHg 95%
    05:00 +20°C° 0 mm 0 m/S 691 mmHg 93%
    06:00 +20°C° 0 mm 0 m/S 692 mmHg 92%
    07:00 +20°C° 0 mm 0 m/S 692 mmHg 90%
    08:00 +25°C° 0 mm 1 m/S 693 mmHg 79%
    09:00 +28°C° 0 mm 1 m/S 693 mmHg 69%
    10:00 +31°C° 0 mm 1 m/S 694 mmHg 58%
    11:00 +31°C° 0.1 mm 1 m/S 693 mmHg 55%
    12:00 +32°C° 0.1 mm 1 m/S 693 mmHg 52%
    13:00 +33°C° 0.1 mm 1 m/S 692 mmHg 49%
    14:00 +31°C° 0.3 mm 1 m/S 692 mmHg 54%
    15:00 +30°C° 0.3 mm 1 m/S 691 mmHg 60%
    16:00 +29°C° 0.3 mm 1 m/S 690 mmHg 66%
    17:00 +28°C° 0.1 mm 1 m/S 690 mmHg 72%
    18:00 +24°C° 0.1 mm 0 m/S 690 mmHg 79%
    19:00 +22°C° 0.1 mm 0 m/S 691 mmHg 86%
    20:00 +22°C° 0 mm 0 m/S 691 mmHg 88%
    21:00 +21°C° 0 mm 0 m/S 691 mmHg 90%
    22:00 +21°C° 0 mm 0 m/S 691 mmHg 92%
    23:00 +20°C° 0 mm 0 m/S 691 mmHg 92%

    Morgen, 27 Mai, Mittwoch

    Zeit Temperatur Niederschläge Wind Luftdruck Luftfeuchtigkeit
    00:00 +20°C° 0 mm 0 m/S 691 mmHg 92%
    01:00 +19°C° 0 mm 0 m/S 691 mmHg 92%
    02:00 +19°C° 0 mm 0 m/S 691 mmHg 92%
    03:00 +19°C° 0 mm 0 m/S 691 mmHg 92%
    04:00 +18°C° 0 mm 0 m/S 691 mmHg 92%
    05:00 +19°C° 0 mm 0 m/S 691 mmHg 91%
    06:00 +21°C° 0 mm 1 m/S 691 mmHg 90%
    07:00 +21°C° 0 mm 1 m/S 692 mmHg 88%
    08:00 +23°C° 0 mm 0 m/S 692 mmHg 77%
    09:00 +26°C° 0 mm 0 m/S 693 mmHg 66%
    10:00 +29°C° 0 mm 0 m/S 694 mmHg 54%
    11:00 +30°C° 0 mm 0 m/S 693 mmHg 51%
    12:00 +33°C° 0 mm 1 m/S 692 mmHg 49%
    13:00 +33°C° 0 mm 1 m/S 692 mmHg 46%
    14:00 +32°C° 0.3 mm 1 m/S 691 mmHg 53%
    15:00 +31°C° 0.3 mm 1 m/S 691 mmHg 59%
    16:00 +29°C° 0.3 mm 1 m/S 690 mmHg 65%
    17:00 +28°C° 0.4 mm 1 m/S 690 mmHg 73%
    18:00 +26°C° 0.4 mm 1 m/S 691 mmHg 80%
    19:00 +23°C° 0.4 mm 0 m/S 691 mmHg 87%
    20:00 +22°C° 0.2 mm 0 m/S 691 mmHg 89%
    21:00 +24°C° 0.2 mm 1 m/S 692 mmHg 91%
    22:00 +23°C° 0.2 mm 1 m/S 692 mmHg 93%
    23:00 +23°C° 0 mm 1 m/S 692 mmHg 93%

    übermorgen, 28 Mai, Donnerstag

    Zeit Temperatur Niederschläge Wind Luftdruck Luftfeuchtigkeit
    00:00 +22°C° 0 mm 1 m/S 691 mmHg 93%
    01:00 +20°C° 0 mm 0 m/S 691 mmHg 93%
    02:00 +22°C° 0 mm 1 m/S 691 mmHg 93%
    03:00 +21°C° 0 mm 1 m/S 691 mmHg 94%
    04:00 +21°C° 0 mm 1 m/S 690 mmHg 94%
    05:00 +21°C° 0 mm 1 m/S 691 mmHg 92%
    06:00 +22°C° 0 mm 1 m/S 691 mmHg 91%
    07:00 +22°C° 0 mm 1 m/S 692 mmHg 89%
    08:00 +25°C° 0 mm 1 m/S 692 mmHg 79%
    09:00 +27°C° 0 mm 1 m/S 693 mmHg 69%
    10:00 +28°C° 0 mm 0 m/S 693 mmHg 59%
    11:00 +31°C° 0.1 mm 1 m/S 693 mmHg 53%
    12:00 +33°C° 0.1 mm 1 m/S 692 mmHg 48%
    13:00 +34°C° 0.1 mm 1 m/S 692 mmHg 43%
    14:00 +33°C° 0.1 mm 1 m/S 691 mmHg 48%
    15:00 +31°C° 0.1 mm 1 m/S 691 mmHg 53%
    16:00 +30°C° 0.1 mm 1 m/S 690 mmHg 58%
    17:00 +28°C° 0.6 mm 1 m/S 690 mmHg 66%
    18:00 +26°C° 0.6 mm 1 m/S 690 mmHg 74%
    19:00 +24°C° 0.6 mm 1 m/S 691 mmHg 82%
    20:00 +24°C° 0 mm 1 m/S 691 mmHg 84%
    21:00 +21°C° 0 mm 0 m/S 691 mmHg 85%
    22:00 +21°C° 0 mm 0 m/S 692 mmHg 87%
    23:00 +20°C° 0 mm 0 m/S 691 mmHg 87%

    29 Mai, Freitag

    Zeit Temperatur Niederschläge Wind Luftdruck Luftfeuchtigkeit
    00:00 +20°C° 0 mm 0 m/S 691 mmHg 87%
    01:00 +20°C° 0 mm 0 m/S 690 mmHg 87%
    02:00 +21°C° 0 mm 1 m/S 690 mmHg 87%
    03:00 +21°C° 0 mm 1 m/S 690 mmHg 87%
    04:00 +21°C° 0 mm 1 m/S 690 mmHg 87%
    05:00 +21°C° 0 mm 1 m/S 691 mmHg 85%
    06:00 +22°C° 0 mm 1 m/S 691 mmHg 83%
    07:00 +22°C° 0 mm 1 m/S 692 mmHg 81%
    08:00 +25°C° 0 mm 1 m/S 692 mmHg 68%
    09:00 +28°C° 0 mm 1 m/S 693 mmHg 56%
    10:00 +32°C° 0 mm 1 m/S 693 mmHg 43%
    11:00 +33°C° 0 mm 1 m/S 693 mmHg 40%
    12:00 +34°C° 0 mm 1 m/S 692 mmHg 36%
    13:00 +35°C° 0 mm 1 m/S 691 mmHg 32%
    14:00 +34°C° 0 mm 1 m/S 691 mmHg 35%
    15:00 +33°C° 0 mm 1 m/S 690 mmHg 38%
    16:00 +32°C° 0 mm 1 m/S 690 mmHg 41%
    17:00 +30°C° 0 mm 1 m/S 690 mmHg 51%
    18:00 +28°C° 0 mm 1 m/S 690 mmHg 60%
    19:00 +26°C° 0 mm 1 m/S 690 mmHg 69%
    20:00 +25°C° 0 mm 1 m/S 690 mmHg 74%
    21:00 +22°C° 0 mm 0 m/S 691 mmHg 79%
    22:00 +21°C° 0 mm 0 m/S 691 mmHg 84%
    23:00 +20°C° 0 mm 0 m/S 691 mmHg 86%

    30 Mai, Samstag

    Zeit Temperatur Niederschläge Wind Luftdruck Luftfeuchtigkeit
    00:00 +20°C° 0 mm 0 m/S 690 mmHg 89%
    01:00 +19°C° 0 mm 0 m/S 690 mmHg 92%
    02:00 +19°C° 0 mm 0 m/S 690 mmHg 92%
    03:00 +19°C° 0 mm 0 m/S 690 mmHg 93%
    04:00 +20°C° 0 mm 1 m/S 690 mmHg 94%
    05:00 +21°C° 0 mm 1 m/S 690 mmHg 92%
    06:00 +21°C° 0 mm 1 m/S 691 mmHg 89%
    07:00 +22°C° 0 mm 1 m/S 691 mmHg 86%
    08:00 +25°C° 0 mm 1 m/S 692 mmHg 72%
    09:00 +28°C° 0 mm 1 m/S 693 mmHg 58%
    10:00 +31°C° 0 mm 1 m/S 694 mmHg 45%
    11:00 +32°C° 0 mm 1 m/S 693 mmHg 41%
    12:00 +33°C° 0 mm 1 m/S 692 mmHg 37%
    13:00 +34°C° 0 mm 1 m/S 692 mmHg 33%
    14:00 +34°C° 0 mm 2 m/S 691 mmHg 38%
    15:00 +32°C° 0 mm 2 m/S 691 mmHg 43%
    16:00 +31°C° 0 mm 2 m/S 690 mmHg 47%
    17:00 +29°C° 0 mm 1 m/S 691 mmHg 59%
    18:00 +27°C° 0 mm 1 m/S 691 mmHg 71%
    19:00 +22°C° 0 mm 0 m/S 691 mmHg 83%
    20:00 +22°C° 0 mm 0 m/S 691 mmHg 86%
    21:00 +21°C° 0 mm 0 m/S 691 mmHg 89%
    22:00 +23°C° 0 mm 1 m/S 692 mmHg 92%
    23:00 +20°C° 0 mm 0 m/S 691 mmHg 94%

    31 Mai, Sonntag

    Zeit Temperatur Niederschläge Wind Luftdruck Luftfeuchtigkeit
    00:00 +20°C° 0 mm 0 m/S 691 mmHg 96%
    01:00 +19°C° 0 mm 0 m/S 691 mmHg 97%
    02:00 +19°C° 0 mm 0 m/S 691 mmHg 97%
    03:00 +19°C° 0 mm 0 m/S 691 mmHg 97%
    04:00 +19°C° 0 mm 0 m/S 691 mmHg 97%
    05:00 +19°C° 0 mm 0 m/S 691 mmHg 94%
    06:00 +19°C° 0 mm 0 m/S 691 mmHg 90%
    07:00 +20°C° 0 mm 0 m/S 692 mmHg 87%
    08:00 +25°C° 0 mm 1 m/S 692 mmHg 71%
    09:00 +28°C° 0 mm 1 m/S 693 mmHg 56%
    10:00 +31°C° 0 mm 1 m/S 694 mmHg 41%
    11:00 +32°C° 0 mm 2 m/S 693 mmHg 37%
    12:00 +34°C° 0 mm 2 m/S 692 mmHg 33%
    13:00 +35°C° 0 mm 2 m/S 692 mmHg 30%
    14:00 +35°C° 0 mm 2 m/S 691 mmHg 32%
    15:00 +34°C° 0 mm 1 m/S 691 mmHg 34%
    16:00 +33°C° 0 mm 1 m/S 691 mmHg 36%
    17:00 +31°C° 0 mm 1 m/S 691 mmHg 42%
    18:00 +28°C° 0 mm 1 m/S 691 mmHg 48%
    19:00 +26°C° 0 mm 1 m/S 691 mmHg 54%
    20:00 +25°C° 0 mm 1 m/S 691 mmHg 56%
    21:00 +24°C° 0 mm 1 m/S 691 mmHg 58%
    22:00 +22°C° 0 mm 0 m/S 692 mmHg 60%
    23:00 +21°C° 0 mm 0 m/S 692 mmHg 61%
    Mehr zeigen